sat.trackr.live / text

‹ back to catalog

2023-091T

NORAD 57183 · 2023-091T

PAYLOAD ACTIVE UNKNOWN

§ Identity

Operator
Country
CIS
Launch date
2023-06-27
Launch site
VOSTO
Launch vehicle
Mass (kg)
RCS (m²)

External: N2YO · Heavens-Above · Gunter

§ Orbital elements

Epoch: 2026-05-25T03:29:35.086272Z

Period
94.82 min
Inclination
97.5102°
Eccentricity
0.0011272
Mean motion
15.18742856 rev/d
Perigee alt
501.9 km
Apogee alt
517.4 km
Semi-major
6,887.8 km
B*
1.9770e-4
RAAN
203.9172°
Arg perigee
182.3664°
Mean anomaly
177.7518°
Rev number
16,047

§ Raw data

2023-091T1 57183U 23091T   26145.14554498  .00004043  00000+0  19770-3 0  99942 57183  97.5102 203.9172 0011272 182.3664 177.7518 15.18742856160478

JSON: /api/v1/satellites/57183 · /tle

For live sub-satellite position, see the globe view (requires WebGL).

§ Visibility from observer

Set your observer location to see the next 7 days of passes ≥ 10°. The values pass through the URL so the page stays shareable.

No JS? Fill the form by hand. The geolocation button needs JavaScript.

§ Radio — SatNOGS DB

ModeDescriptionDownlinkUplink
LoRa Mode U - LoRa 62.5k 435.050 MHz

1 transmitter · refreshed weekly from db.satnogs.org